Madison Heights, VA (24572)

4:07 AM EST on January 26, 2015 (GMT -0500)
Concord Turnpike | Change Station
CLOSE
Current Station
Personal Weather Station
Location: Lynchburg, VA
Elevation: 515 ft
Nearby Weather Stations

Elev 515 ft 37.40 °N, 79.11 °W | Updated 4 minutes ago

Rain
Rain
41.0 °F
Feels Like 41 °F
N
1.0
Wind Variable Wind from NNW
Gusts 5.1 mph

Today
High -- | Low -- °F
--% Chance of Precip.
Yesterday
High -- | Low -- °F
Precip. -- in
7:24 AM 5:33 PM
Waxing Crescent, 41% visible
Pressure 29.70 in
Visibility 10.0 miles
Clouds Overcast 6000 ft
Windchill 41 °F
Dew Point 37 °F
Humidity 85%
Rainfall 0.02 in
Snow Depth Not available.
UV 0 out of 12
Pollen 1.40 out of 12
Air Quality Not available.
Flu Activity Not available.
METAR KLYH 260854Z AUTO 02003KT 10SM OVC060 04/03 A2969 RMK AO2 RAE53 SLP056 P0004 60004 T00390028 58015

More Conditions Fewer Conditions

Pressure 29.70 in
Visibility 10.0 miles
Clouds Overcast 6000 ft
Windchill 41 °F
Dew Point 37 °F
Humidity 85%
Rainfall 0.02 in
Snow Depth Not available.
UV 0 out of 12
Pollen 1.40 out of 12
Air Quality Not available.
Flu Activity Not available.
METAR KLYH 260854Z AUTO 02003KT 10SM OVC060 04/03 A2969 RMK AO2 RAE53 SLP056 P0004 60004 T00390028 58015

More Conditions Fewer Conditions

10-Day Weather Forecast

Almanac

Astronomy

Jan. 26, 2015 Rise Set
Actual Time
Civil Twilight
Nautical Twilight
Astronomical Twilight
Moon
Length of Visible Light
Length of Day
Tomorrow will be .
, % of the Moon is Illuminated

Today's Extremes

State Highs State Lows

Community

WunderPhotos

Upload Photos

1,790,163 photos uploaded!

WunderBlogs® & News

Nearby

Air Quality

  Air Quality AQ Index Pollutant
Not available.

Snow Depth

Station Depth Elevation

Earthquake Activity

City Distance Mag. Time & Date
Minimum magnitude displayed is 2.5.

Coastal Water Temperatures

Place Temperature

Nearby Weather Stations